Location: Lombard
(41.8800°N, 88.0080°W)
Time: 03:46:13
(UTC-05:00)

Vanguard 2 Rocket - Pass Details

Date: 26 February 2024
Orbit: 555 x 3307 km, 32.9° (Epoch: 12 April)

Event Time Altitude Azimuth Distance (km) Brightness Sun altitude
Rises 21:50:06 0° 271° (W) 6,796 11.9 -45.4°
Reaches altitude 10° 21:58:34 10° 249° (WSW) 6,132 11.3 -46.6°
Maximum altitude 22:05:53 13° 227° (SW) 5,965 11.0 -47.6°
Drops below altitude 10° 22:13:20 10° 204° (SSW) 6,194 10.9 -48.6°
Enters shadow 22:14:08 - 202° (SSW) 6,240 10.9 -48.7°
Sets 22:22:15 0° 182° (S) 6,905 - -49.7°
